This demonstration page uses our WeatherBlox Daily Observations layout. Learn more.

40.92945, -100.16068

Hourly Observations for November 30, 2019

Temp ( °F °C ) Dew Point ( °F °C ) Humidity (%) Winds ( mph kmh ) Pressure ( in mb ) Visibility ( mi km ) Precip ( " mm )
12:15 am 00:15 Cloudy with Mist and Fog 34 1.1 34 1.1 100 100 ESE 16 26 29.57 1002 1.5 2.41401 0 0
12:35 am 00:35 Cloudy with Light Rain 34 1.1 34 1.1 100 100 ESE 18 30 29.54 1000 1.5 2.41401 0 0
12:55 am 00:55 Cloudy with Light Rain 35 1.5 35 1.5 100 100 SE 15 24 29.53 1000 1.75 2.816345 0 0
1:15 am 01:15 Cloudy with Mist and Fog 34 1.3 34 1.3 100 100 SE 13 20 29.52 1000 1.25 2.011675 0 0
1:35 am 01:35 Cloudy with Fog 35 1.7 35 1.7 100 100 SE 16 26 29.5 999 0.5 0.80467 0 0
1:55 am 01:55 Cloudy with Fog 35 1.9 35 1.9 100 100 SE 16 26 29.48 998 0.25 0.402335 0 0
2:15 am 02:15 Cloudy with Light Rain 36 2 36 2 100 100 SSE 10 17 29.47 998 0.25 0.402335 0 0
2:35 am 02:35 Cloudy with Fog 37 2.5 37 2.5 100 100 SE 18 30 29.44 997 0.5 0.80467 0 0
2:55 am 02:55 Cloudy with Mist and Fog 36 2.4 36 2.4 100 100 SSE 17 28 29.42 996 0.75 1.207005 0 0
3:15 am 03:15 Cloudy with Mist and Fog 36 2.3 36 2.3 100 100 SSE 20 31 29.41 996 5 8.0467 0 0
3:35 am 03:35 Mostly Cloudy 36 2.1 36 2.1 100 100 SSE 18 30 29.38 995 10 16.0934 0 0
3:55 am 03:55 Mostly Cloudy 38 3.2 35 1.6 89 89 S 21 33 29.34 994 10 16.0934 0 0
4:15 am 04:15 Cloudy 38 3.4 34 1.3 86 86 SSW 22 35 29.31 993 10 16.0934 0 0
4:35 am 04:35 Cloudy 39 4 35 1.8 86 86 SW 26 43 29.3 992 10 16.0934 0 0
4:55 am 04:55 Cloudy 38 3.5 35 1.6 88 88 SW 25 41 29.3 992 10 16.0934 0 0
5:15 am 05:15 Cloudy 38 3.2 35 1.5 89 89 SW 28 44 29.3 992 10 16.0934 0 0
5:35 am 05:35 Mostly Cloudy 38 3.6 35 1.4 86 86 SW 30 48 29.3 992 10 16.0934 0 0
5:55 am 05:55 Partly Cloudy 39 3.9 34 1 82 82 SW 30 48 29.3 992 10 16.0934 0 0
6:15 am 06:15 Mostly Cloudy 39 4.1 33 0.5 78 78 WSW 23 37 29.3 992 10 16.0934 0 0
6:35 am 06:35 Cloudy 39 3.9 33 0.5 79 79 WSW 18 30 29.3 992 10 16.0934 0 0
6:55 am 06:55 Cloudy 38 3.6 33 0.5 80 80 WSW 21 33 29.31 993 10 16.0934 0 0
7:15 am 07:15 Cloudy 38 3.3 33 0.5 82 82 WSW 24 39 29.3 992 10 16.0934 0 0
7:35 am 07:35 Partly Cloudy 37 3 32 0 81 81 WSW 26 43 29.31 992 10 16.0934 0 0
7:55 am 07:55 Partly Cloudy 37 2.8 32 -0.2 81 81 WSW 17 28 29.31 992 10 16.0934 0 0
8:15 am 08:15 Mostly Cloudy 37 3 31 -0.5 78 78 WSW 20 31 29.3 992 10 16.0934 0 0
8:35 am 08:35 Cloudy 37 2.5 31 -0.5 81 81 W 29 46 29.31 993 10 16.0934 0 0
8:55 am 08:55 Cloudy 35 1.5 31 -0.4 87 87 W 29 46 29.31 993 7 11.26538 0 0
9:15 am 09:15 Cloudy 34 1.1 31 -0.5 89 89 W 23 37 29.31 993 10 16.0934 0 0
9:35 am 09:35 Cloudy with Light Drizzle 34 1.1 32 -0.1 92 92 W 24 39 29.32 993 5 8.0467 0 0
12:15 pm 12:15 Mostly Cloudy 34 1 29 -1.4 84 84 WNW 33 54 29.4 995 10 16.0934 0 0
12:35 pm 12:35 Cloudy 34 1 29 -1.6 83 83 WNW 35 56 29.41 996 10 16.0934 0 0
12:55 pm 12:55 Cloudy 32 0.2 29 -1.5 89 89 WNW 32 52 29.42 996 10 16.0934 0 0
1:15 pm 13:15 Cloudy with Mist and Fog 32 0.2 29 -1.6 88 88 WNW 36 57 29.43 997 5 8.0467 0 0
1:35 pm 13:35 Cloudy 32 0 28 -2 87 87 WNW 36 57 29.44 997 10 16.0934 0 0
1:55 pm 13:55 Cloudy with Mist and Fog 32 -0.2 28 -2.2 87 87 WNW 37 59 29.46 998 5 8.0467 0 0
2:15 pm 14:15 Cloudy with Mist and Fog 31 -0.3 28 -2.2 87 87 WNW 32 52 29.46 998 5 8.0467 0 0
2:35 pm 14:35 Cloudy with Mist and Fog 31 -0.5 28 -2.5 87 87 WNW 35 56 29.48 998 4 6.43736 0 0
2:55 pm 14:55 Cloudy 31 -0.7 26 -3.2 83 83 WNW 39 63 29.49 999 7 11.26538 0 0
3:15 pm 15:15 Cloudy with Mist and Fog 30 -1 27 -2.9 87 87 WNW 38 61 29.51 999 4 6.43736 0 0
3:35 pm 15:35 Windy with Snow Likely 30 -1.2 27 -2.7 90 90 WNW 37 59 29.53 1000 2.5 4.02335 0 0
3:55 pm 15:55 Windy with Snow Likely 30 -1.2 27 -3 88 88 WNW 37 59 29.54 1000 2.5 4.02335 0 0
4:15 pm 16:15 Very Windy with Snow Likely 30 -1.1 26 -3.6 83 83 WNW 40 65 29.56 1001 3 4.82802 0 0
4:35 pm 16:35 Very Windy with Snow Likely 29 -1.5 26 -3.5 86 86 WNW 39 63 29.57 1001 4 6.43736 0 0
4:55 pm 16:55 Windy with Snow Likely 29 -1.7 26 -3.5 88 88 WNW 37 59 29.58 1002 1.75 2.816345 0 0
5:15 pm 17:15 Windy with Snow Likely 29 -1.6 25 -3.7 86 86 WNW 37 59 29.59 1002 3 4.82802 0 0
5:35 pm 17:35 Windy with Snow Likely 28 -2 26 -3.3 91 91 WNW 35 56 29.61 1003 1.75 2.816345 0 0
5:55 pm 17:55 Windy with Snow Likely 29 -1.9 25 -3.7 88 88 NW 37 59 29.62 1003 4 6.43736 0 0
6:15 pm 18:15 Cloudy 29 -1.8 25 -4 85 85 NW 36 57 29.63 1003 7 11.26538 0 0
6:35 pm 18:35 Very Windy with Snow Likely 28 -2 25 -4.1 86 86 NW 38 61 29.65 1004 2.5 4.02335 0 0
6:55 pm 18:55 Windy with Snow Likely 28 -2.2 25 -3.8 89 89 NW 37 59 29.66 1004 2 3.21868 0 0
7:15 pm 19:15 Cloudy with Mist and Fog 28 -2 25 -4.1 86 86 NW 38 61 29.67 1005 4 6.43736 0 0
7:35 pm 19:35 Cloudy 28 -2 24 -4.5 83 83 NW 37 59 29.69 1005 7 11.26538 0 0
7:55 pm 19:55 Cloudy 28 -2 23 -5 80 80 NW 38 61 29.7 1006 10 16.0934 0 0
8:15 pm 20:15 Cloudy 28 -2 23 -5.1 80 80 NW 36 57 29.71 1006 10 16.0934 0 0
8:35 pm 20:35 Cloudy 28 -2 23 -5.2 79 79 NW 43 69 29.73 1007 10 16.0934 0 0
8:55 pm 20:55 Cloudy 29 -1.8 22 -5.3 77 77 NW 36 57 29.74 1007 10 16.0934 0 0
9:15 pm 21:15 Cloudy 29 -1.8 22 -5.3 77 77 NW 43 69 29.75 1008 10 16.0934 0 0
9:35 pm 21:35 Cloudy 29 -1.8 22 -5.5 76 76 NW 39 63 29.77 1008 10 16.0934 0 0
9:55 pm 21:55 Cloudy 29 -1.8 22 -5.4 77 77 NW 35 56 29.79 1009 10 16.0934 0 0
10:15 pm 22:15 Cloudy 29 -1.7 22 -5.3 77 77 NW 38 61 29.8 1009 10 16.0934 0 0
10:35 pm 22:35 Cloudy 29 -1.5 23 -5.1 77 77 NW 37 59 29.81 1010 10 16.0934 0 0
10:55 pm 22:55 Cloudy 29 -1.6 23 -5.1 77 77 NW 38 61 29.84 1011 10 16.0934 0 0
11:15 pm 23:15 Cloudy 29 -1.6 23 -5.1 77 77 NW 40 65 29.85 1011 10 16.0934 0 0
11:35 pm 23:35 Cloudy 29 -1.7 23 -5.1 78 78 NW 33 54 29.86 1011 10 16.0934 0 0
11:55 pm 23:55 Cloudy 29 -1.7 22 -5.3 77 77 NW 38 61 29.87 1012 10 16.0934 0 0

Powered by AerisWeather